Location: Brno
(49.2000°N, 16.6330°E)
Time: 19:09:21
(UTC+02:00)

Transit 4A - Pass Details

Date: 31 July 2021
Orbit: 871 x 974 km, 66.8° (Epoch: 16 September)

Event Time Altitude Azimuth Distance (km) Brightness Sun altitude
Rises 11:07:03 0° 314° (NW) 3,480 10.5 51.5°
Reaches altitude 10° 11:10:11 10° 298° (WNW) 2,547 10.0 51.9°
Maximum altitude 11:14:13 20° 254° (WSW) 1,965 9.7 52.4°
Drops below altitude 10° 11:18:19 10° 210° (SSW) 2,574 10.5 52.8°
Sets 11:21:31 0° 194° (SSW) 3,529 11.2 53.2°
